Location: Albuquerque Trailhead
(34.7934°N, 106.3736°W)
Time: 00:41:39
(UTC+00:00)

Cosmos 44 - Pass Details

Date: 20 June 2021
Orbit: 572 x 790 km, 65.1° (Epoch: 27 July)

Event Time Altitude Azimuth Distance (km) Brightness Sun altitude
Exits shadow 10:45:42 16° 222° (SW) 1,843 4.8 -12.1°
Maximum altitude 10:49:45 63° 301° (WNW) 848 3.6 -11.4°
Drops below altitude 10° 10:55:07 10° 22° (NNE) 2,342 7.1 -10.6°
Sets 10:57:36 0° 26° (NNE) 3,284 8.1 -10.2°
